This is the latest recevied weather packets stored in our database for station/object KC3DGM. If no packets are shown the sender has not sent any weather packets the latest 10 day(s).
| Time | Temp. | Humidity | Pressure | Rain* | Wind** | Luminosity | Snow |
|---|---|---|---|---|---|---|---|
| 1778028913 | 11.67° C | 96% | 980.2 hPa | 0 mm | - | 0 W/m² | - |
| 1778028608 | 11.67° C | 96% | 980 hPa | 1.78 mm | - | 0 W/m² | - |
| 1778028306 | 11.67° C | 95% | 979.9 hPa | 1.78 mm | - | 0 W/m² | - |
| 1778028002 | 11.67° C | 96% | 979.6 hPa | 0 mm | - | 0 W/m² | - |
| 1778027699 | 12.22° C | 97% | 979.6 hPa | 0 mm | - | 0 W/m² | - |
| 1778027395 | 12.78° C | 97% | 979.4 hPa | 0 mm | - | 0 W/m² | - |
| 1778027091 | 12.78° C | 97% | 979.4 hPa | 0 mm | - | 0 W/m² | - |
| 1778026786 | 12.78° C | 97% | 979.3 hPa | 0 mm | - | 0 W/m² | - |
| 1778026484 | 13.33° C | 97% | 979.3 hPa | 0 mm | - | 0 W/m² | - |
| 1778026181 | 13.33° C | 98% | 979.3 hPa | 0 mm | - | 0 W/m² | - |
| 1778025878 | 13.33° C | 97% | 979.3 hPa | 0 mm | - | 0 W/m² | - |
| 1778025575 | 13.33° C | 97% | 979.3 hPa | 0 mm | - | 3 W/m² | - |
| 1778025273 | 13.33° C | 97% | 979.3 hPa | 0 mm | - | 5 W/m² | - |
| 1778024970 | 13.33° C | 97% | 979 hPa | 0 mm | - | 5 W/m² | - |
| 1778024668 | 13.33° C | 97% | 979.3 hPa | 0 mm | - | 4 W/m² | - |
| 1778024364 | 13.89° C | 97% | 979.4 hPa | 0 mm | - | 6 W/m² | - |
| 1778024062 | 13.89° C | 97% | 979.4 hPa | 0 mm | - | 6 W/m² | - |
| 1778023759 | 13.89° C | 97% | 979.4 hPa | 0 mm | - | 6 W/m² | - |
| 1778023457 | 13.89° C | 97% | 979.6 hPa | 0 mm | - | 2 W/m² | - |
| 1778023153 | 13.89° C | 97% | 979.6 hPa | 0 mm | - | 2 W/m² | - |
| 1778022851 | 14.44° C | 97% | 979.8 hPa | 1.78 mm | - | 0 W/m² | - |
| 1778022549 | 14.44° C | 97% | 979.4 hPa | 1.78 mm | - | 9 W/m² | - |
| 1778022246 | 14.44° C | 95% | 979.5 hPa | 0 mm | - | 18 W/m² | - |
| 1778021942 | 14.44° C | 95% | 979.4 hPa | 0 mm | - | 18 W/m² | - |
| 1778021640 | 14.44° C | 95% | 979.3 hPa | 0 mm | - | 18 W/m² | - |
* Rain latest hour (hover to see other rain measurements)
** Current wind speed in m/s (hover to see current wind gust speed)